Date String (YYYY-MM-DD hh:mm:ss) UTC,Instrument flags,Ambient pressure (hPa),Sample flow (lpm),Bypass flow (lpm),Sample temperature (°C),Ambient temperature (°C),ASC tube jacket temperature (°C),LED temperature (°C),Box temperature (°C),Sample RH (%),Span deviation,Mass concentration (μg/m³),Mass concentration (μg/m³),Mass concentration (μg/m³)
DateTimeUTC,F1_M11,P_M11,Q1_M11,Q2_M11,T1_M11,T2_M11,T3_M11,T4_M11,T5_M11,U1_M11,ZSPAN_M11,X0_M11,X2_M11,X1_M11
2022-09-03 14:00:00,,0835.4,5.00,0.00,30.3,28.7,00.0,39.1,32.0,20.6,0000.0,0014.42,0007.26,0006.28
2022-09-03 14:01:00,,0835.4,5.00,0.00,30.3,28.8,00.0,39.1,32.0,21.0,0000.0,0015.10,0007.27,0006.28
2022-09-03 14:02:00,,0835.4,4.98,0.00,30.3,28.9,00.0,39.1,32.0,21.4,0000.0,0015.27,0007.25,0006.28
2022-09-03 14:03:00,,0835.3,5.01,0.00,30.3,29.0,00.0,39.1,32.0,21.3,0000.0,0015.38,0007.28,0006.28
2022-09-03 14:04:00,,0835.3,5.00,0.00,30.3,29.0,00.0,39.1,32.1,21.4,0000.0,0015.46,0007.32,0006.28
2022-09-03 14:05:00,,0835.3,5.00,0.00,30.3,29.1,00.0,39.1,32.1,21.8,0000.0,0016.36,0007.34,0006.27
2022-09-03 14:06:00,,0835.3,5.01,0.00,30.3,29.1,00.0,39.1,32.1,21.6,0000.0,0016.76,0007.36,0006.28
2022-09-03 14:07:00,,0835.3,4.99,0.00,30.3,29.2,00.0,39.1,32.1,21.7,0000.0,0017.04,0007.38,0006.29
2022-09-03 14:08:00,,0835.3,5.01,0.00,30.4,29.2,00.0,39.1,32.2,21.5,0000.0,0017.65,0007.33,0006.27
2022-09-03 14:09:00,,0835.4,4.99,0.00,30.4,29.2,00.0,39.1,32.2,21.6,0000.0,0017.29,0007.28,0006.25
2022-09-03 14:10:00,,0835.3,5.01,0.00,30.4,29.3,00.0,39.2,32.2,21.6,0000.0,0017.28,0007.25,0006.22
2022-09-03 14:11:00,,0835.3,4.98,0.00,30.4,29.3,00.0,39.2,32.2,21.5,0000.0,0017.13,0007.23,0006.19
2022-09-03 14:12:00,,0835.3,5.01,0.00,30.4,29.3,00.0,39.2,32.3,21.6,0000.0,0016.73,0007.21,0006.17
2022-09-03 14:13:00,,0835.3,4.99,0.00,30.5,29.4,00.0,39.2,32.3,21.4,0000.0,0015.51,0007.14,0006.15
2022-09-03 14:14:00,,0835.3,5.01,0.00,30.5,29.2,00.0,39.2,32.3,21.0,0000.0,0016.72,0007.13,0006.13
2022-09-03 14:15:00,,0835.3,4.98,0.00,30.5,28.0,00.0,39.2,32.1,20.7,0000.0,0016.74,0007.12,0006.13
2022-09-03 14:16:00,,0835.2,5.00,0.00,30.4,27.0,00.0,39.2,32.0,20.9,0000.0,0016.12,0007.19,0006.15
2022-09-03 14:17:00,,0835.2,5.01,0.00,30.3,27.1,00.0,39.1,32.0,21.3,0000.0,0015.79,0007.21,0006.14
2022-09-03 14:18:00,,0835.2,5.00,0.00,30.3,27.4,00.0,39.1,31.9,21.1,0000.0,0015.45,0007.20,0006.14
2022-09-03 14:19:00,,0835.2,4.99,0.00,30.2,27.7,00.0,39.0,31.9,21.2,0000.0,0015.04,0007.31,0006.16
2022-09-03 14:20:00,,0835.2,5.01,0.00,30.2,28.0,00.0,39.0,31.9,21.4,0000.0,0015.18,0007.44,0006.19
2022-09-03 14:21:00,,0835.2,5.00,0.00,30.2,28.2,00.0,39.0,31.9,21.6,0000.0,0015.31,0007.52,0006.22
2022-09-03 14:22:00,,0835.3,5.01,0.00,30.2,28.4,00.0,39.0,31.9,21.7,0000.0,0015.82,0007.54,0006.23
2022-09-03 14:23:00,,0835.3,4.98,0.00,30.2,28.6,00.0,39.0,31.9,22.0,0000.0,0015.87,0007.57,0006.25
2022-09-03 14:24:00,,0835.3,5.00,0.00,30.2,28.7,00.0,39.0,32.0,22.1,0000.0,0015.76,0007.64,0006.27
2022-09-03 14:25:00,,0835.3,5.00,0.00,30.2,28.8,00.0,39.0,32.0,21.9,0000.0,0014.54,0007.64,0006.27
2022-09-03 14:26:00,,0835.3,4.99,0.00,30.2,28.9,00.0,39.0,32.0,22.0,0000.0,0015.81,0007.63,0006.27
2022-09-03 14:27:00,,0835.3,5.00,0.00,30.2,29.0,00.0,39.0,32.0,22.0,0000.0,0016.06,0007.52,0006.25
2022-09-03 14:28:00,,0835.2,5.01,0.00,30.2,29.0,00.0,39.0,32.1,21.9,0000.0,0016.22,0007.51,0006.26
2022-09-03 14:29:00,,0835.2,4.99,0.00,30.3,29.1,00.0,39.0,32.1,21.9,0000.0,0016.83,0007.48,0006.27
2022-09-03 14:30:00,,0835.3,4.99,0.00,30.3,29.1,00.0,39.0,32.1,21.8,0000.0,0016.61,0007.40,0006.27
2022-09-03 14:31:00,,0835.3,5.00,0.00,30.3,29.2,00.0,39.0,32.1,21.8,0000.0,0016.74,0007.36,0006.28
2022-09-03 14:32:00,,0835.3,4.99,0.00,30.3,29.2,00.0,39.1,32.2,21.8,0000.0,0016.83,0007.36,0006.31
2022-09-03 14:33:00,,0835.3,5.01,0.00,30.4,29.3,00.0,39.1,32.2,21.8,0000.0,0016.87,0007.42,0006.32
2022-09-03 14:34:00,,0835.3,5.00,0.00,30.4,29.2,00.0,39.1,32.2,21.9,0000.0,0017.20,0007.44,0006.35
2022-09-03 14:35:00,,0835.2,4.99,0.00,30.4,28.2,00.0,39.1,32.1,21.9,0000.0,0017.14,0007.43,0006.37
2022-09-03 14:36:00,,0835.2,5.02,0.00,30.3,27.1,00.0,39.1,32.0,22.1,0000.0,0017.79,0007.46,0006.41
2022-09-03 14:37:00,,0835.3,5.00,0.00,30.3,27.1,00.0,39.0,32.0,22.2,0000.0,0017.81,0007.50,0006.45
2022-09-03 14:38:00,,0835.3,5.00,0.00,30.2,27.4,00.0,39.0,31.9,22.2,0000.0,0019.15,0007.57,0006.48
2022-09-03 14:39:00,,0835.3,5.00,0.00,30.2,27.7,00.0,38.9,31.8,22.2,0000.0,0019.95,0007.54,0006.50
2022-09-03 14:40:00,,0835.3,5.00,0.00,30.1,28.0,00.0,38.9,31.8,22.3,0000.0,0020.12,0007.64,0006.54
2022-09-03 14:41:00,,0835.2,5.00,0.00,30.1,28.2,00.0,38.9,31.9,22.3,0000.0,0020.60,0007.73,0006.59
2022-09-03 14:42:00,,0835.3,4.99,0.00,30.1,28.4,00.0,38.9,31.9,22.2,0000.0,0020.68,0007.78,0006.64
2022-09-03 14:43:00,,0835.3,5.01,0.00,30.1,28.6,00.0,38.9,31.9,22.3,0000.0,0020.18,0007.84,0006.69
2022-09-03 14:44:00,,0835.3,4.98,0.00,30.1,28.7,00.0,38.9,31.9,22.1,0000.0,0020.33,0007.91,0006.74
2022-09-03 14:45:00,,0835.4,5.00,0.00,30.1,28.8,00.0,38.9,31.9,21.9,0000.0,0020.19,0008.03,0006.79
2022-09-03 14:46:00,,0835.4,5.01,0.00,30.1,28.9,00.0,38.9,32.0,21.8,0000.0,0020.34,0008.10,0006.84
2022-09-03 14:47:00,,0835.4,4.99,0.00,30.2,29.0,00.0,38.9,32.0,21.5,0000.0,0019.57,0008.09,0006.86
2022-09-03 14:48:00,,0835.4,5.01,0.00,30.2,29.0,00.0,38.9,32.0,21.2,0000.0,0018.59,0008.04,0006.85
2022-09-03 14:49:00,,0835.4,4.99,0.00,30.2,29.1,00.0,39.0,32.1,21.3,0000.0,0016.78,0008.08,0006.84
2022-09-03 14:50:00,,0835.4,5.01,0.00,30.2,29.1,00.0,39.0,32.1,21.3,0000.0,0016.29,0008.13,0006.85
2022-09-03 14:51:00,,0835.4,4.99,0.00,30.3,29.2,00.0,39.0,32.1,21.4,0000.0,0016.43,0008.11,0006.83
2022-09-03 14:52:00,,0835.4,5.00,0.00,30.3,29.2,00.0,39.0,32.2,21.4,0000.0,0017.16,0008.00,0006.77
2022-09-03 14:53:00,,0835.4,4.99,0.00,30.3,28.4,00.0,39.0,32.1,20.5,0000.0,0016.44,0007.90,0006.68
2022-09-03 14:54:00,,0835.4,5.00,0.00,30.3,27.2,00.0,39.0,32.0,20.4,0000.0,0016.05,0007.79,0006.58
2022-09-03 14:55:00,,0835.4,5.00,0.00,30.2,27.0,00.0,38.9,32.0,20.6,0000.0,0016.58,0007.62,0006.48
2022-09-03 14:56:00,,0835.4,5.00,0.00,30.1,27.3,00.0,38.9,31.8,20.6,0000.0,0016.46,0007.45,0006.39
2022-09-03 14:57:00,,0835.4,4.99,0.00,30.1,27.6,00.0,38.9,31.7,20.8,0000.0,0016.33,0007.34,0006.32
2022-09-03 14:58:00,,0835.3,5.00,0.00,30.1,27.9,00.0,38.8,31.7,21.1,0000.0,0016.30,0007.26,0006.25
2022-09-03 14:59:00,,0835.4,5.00,0.00,30.1,28.2,00.0,38.8,31.8,21.2,0000.0,0016.43,0007.23,0006.20
